Time,TemperatureF,DewpointF,PressureIn,WindDirection,WindDirectionDegrees,WindSpeedMPH,WindSpeedGustMPH,Humidity,HourlyPrecipIn,Conditions,Clouds,dailyrainin,SoftwareType,DateUTC
2013-07-24 00:01:00,62.0,57.0,29.81,WNW,288,5.0,8.0,85,0.00,,,0.00,,2013-07-24 04:01:00,
2013-07-24 00:22:00,62.0,57.0,29.81,WNW,286,4.0,7.0,85,0.00,,,0.00,,2013-07-24 04:22:00,
2013-07-24 00:32:00,62.0,58.0,29.82,West,281,4.0,8.0,86,0.00,,,0.00,,2013-07-24 04:32:00,
2013-07-24 00:43:00,61.0,57.0,29.82,WNW,285,4.0,9.0,86,0.00,,,0.00,,2013-07-24 04:43:00,
2013-07-24 00:52:00,61.0,57.0,29.82,WNW,285,4.0,9.0,86,0.00,,,0.00,,2013-07-24 04:52:00,
2013-07-24 01:02:00,61.0,57.0,29.83,WNW,290,3.0,7.0,87,0.00,,,0.00,,2013-07-24 05:02:00,
2013-07-24 01:33:00,61.0,56.0,29.84,WNW,288,3.0,8.0,85,0.00,,,0.00,,2013-07-24 05:33:00,
2013-07-24 01:43:00,61.0,56.0,29.83,WNW,302,1.0,8.0,83,0.00,,,0.00,,2013-07-24 05:43:00,
2013-07-24 01:52:00,61.0,56.0,29.83,WNW,302,1.0,8.0,83,0.00,,,0.00,,2013-07-24 05:52:00,
2013-07-24 02:01:00,61.0,56.0,29.84,WNW,301,0.0,5.0,84,0.00,,,0.00,,2013-07-24 06:01:00,
2013-07-24 02:12:00,60.0,54.0,29.85,NE,46,1.0,7.0,82,0.00,,,0.00,,2013-07-24 06:12:00,
2013-07-24 02:34:00,60.0,54.0,29.85,NNE,24,1.0,5.0,81,0.00,,,0.00,,2013-07-24 06:34:00,
2013-07-24 02:43:00,59.0,53.0,29.85,NNW,343,1.0,7.0,81,0.00,,,0.00,,2013-07-24 06:43:00,
2013-07-24 02:53:00,58.0,52.0,29.85,ESE,118,0.0,3.0,81,0.00,,,0.00,,2013-07-24 06:53:00,
2013-07-24 03:02:00,58.0,52.0,29.85,ESE,118,0.0,3.0,81,0.00,,,0.00,,2013-07-24 07:02:00,
2013-07-24 03:12:00,58.0,52.0,29.85,West,267,0.0,3.0,81,0.00,,,0.00,,2013-07-24 07:12:00,
2013-07-24 03:22:00,57.0,52.0,29.85,NE,52,0.0,4.0,82,0.00,,,0.00,,2013-07-24 07:22:00,
2013-07-24 03:32:00,57.0,52.0,29.85,NE,52,0.0,4.0,82,0.00,,,0.00,,2013-07-24 07:32:00,
2013-07-24 03:43:00,57.0,52.0,29.85,NW,318,0.0,3.0,83,0.00,,,0.00,,2013-07-24 07:43:00,
2013-07-24 03:52:00,57.0,52.0,29.85,NW,318,0.0,3.0,83,0.00,,,0.00,,2013-07-24 07:52:00,
2013-07-24 04:02:00,56.0,52.0,29.85,West,280,1.0,4.0,85,0.00,,,0.00,,2013-07-24 08:02:00,
2013-07-24 04:12:00,55.0,51.0,29.86,WNW,286,1.0,4.0,87,0.00,,,0.00,,2013-07-24 08:12:00,
2013-07-24 04:22:00,55.0,51.0,29.86,WNW,286,1.0,4.0,87,0.00,,,0.00,,2013-07-24 08:22:00,
2013-07-24 04:32:00,55.0,51.0,29.86,WNW,286,1.0,4.0,87,0.00,,,0.00,,2013-07-24 08:32:00,
2013-07-24 04:43:00,54.0,51.0,29.86,WNW,286,1.0,3.0,89,0.00,,,0.00,,2013-07-24 08:43:00,
2013-07-24 04:52:00,54.0,51.0,29.86,WNW,286,1.0,3.0,89,0.00,,,0.00,,2013-07-24 08:52:00,
2013-07-24 05:02:00,54.0,51.0,29.86,WNW,287,1.0,3.0,89,0.00,,,0.00,,2013-07-24 09:02:00,
2013-07-24 05:12:00,54.0,51.0,29.86,WNW,287,1.0,3.0,89,0.00,,,0.00,,2013-07-24 09:12:00,
2013-07-24 05:22:00,54.0,51.0,29.87,WNW,287,0.0,4.0,91,0.00,,,0.00,,2013-07-24 09:22:00,
2013-07-24 05:32:00,53.0,50.0,29.87,WNW,287,1.0,3.0,91,0.00,,,0.00,,2013-07-24 09:32:00,
2013-07-24 05:43:00,53.0,51.0,29.88,WNW,287,0.0,3.0,92,0.00,,,0.00,,2013-07-24 09:43:00,
2013-07-24 05:53:00,53.0,51.0,29.88,WNW,287,0.0,3.0,92,0.00,,,0.00,,2013-07-24 09:53:00,
2013-07-24 06:02:00,53.0,50.0,29.88,WNW,287,1.0,4.0,91,0.00,,,0.00,,2013-07-24 10:02:00,
2013-07-24 06:12:00,53.0,50.0,29.88,WNW,287,1.0,4.0,91,0.00,,,0.00,,2013-07-24 10:12:00,
2013-07-24 06:22:00,53.0,50.0,29.88,WNW,287,1.0,5.0,91,0.00,,,0.00,,2013-07-24 10:22:00,
2013-07-24 06:43:00,52.0,49.0,29.90,WNW,287,1.0,4.0,91,0.00,,,0.00,,2013-07-24 10:43:00,
2013-07-24 06:53:00,52.0,50.0,29.90,WNW,287,0.0,3.0,92,0.00,,,0.00,,2013-07-24 10:53:00,
2013-07-24 07:02:00,52.0,50.0,29.90,WNW,287,0.0,2.0,92,0.00,,,0.00,,2013-07-24 11:02:00,
2013-07-24 07:22:00,52.0,50.0,29.91,WNW,287,2.0,4.0,93,0.00,,,0.00,,2013-07-24 11:22:00,
2013-07-24 07:32:00,52.0,50.0,29.91,WNW,287,1.0,3.0,93,0.00,,,0.00,,2013-07-24 11:32:00,
2013-07-24 07:43:00,53.0,51.0,29.92,WNW,291,0.0,5.0,92,0.00,,,0.00,,2013-07-24 11:43:00,
2013-07-24 08:12:00,54.0,51.0,29.93,WNW,302,0.0,5.0,90,0.00,,,0.00,,2013-07-24 12:12:00,
2013-07-24 08:22:00,56.0,52.0,29.93,WNW,282,1.0,5.0,87,0.00,,,0.00,,2013-07-24 12:22:00,
2013-07-24 08:52:00,58.0,52.0,29.94,North,355,2.0,6.0,81,0.00,,,0.00,,2013-07-24 12:52:00,
2013-07-24 09:02:00,59.0,52.0,29.94,East,96,2.0,7.0,79,0.00,,,0.00,,2013-07-24 13:02:00,
2013-07-24 09:12:00,59.0,52.0,29.94,East,96,2.0,7.0,79,0.00,,,0.00,,2013-07-24 13:12:00,
2013-07-24 09:22:00,60.0,52.0,29.94,ENE,64,1.0,4.0,76,0.00,,,0.00,,2013-07-24 13:22:00,
2013-07-24 09:43:00,61.0,53.0,29.95,NE,53,3.0,8.0,74,0.00,,,0.00,,2013-07-24 13:43:00,
2013-07-24 09:53:00,61.0,53.0,29.95,NE,53,3.0,8.0,74,0.00,,,0.00,,2013-07-24 13:53:00,
2013-07-24 10:02:00,63.0,53.0,29.95,NE,52,4.0,11.0,70,0.00,,,0.00,,2013-07-24 14:02:00,
2013-07-24 10:12:00,63.0,52.0,29.95,NE,49,5.0,10.0,67,0.00,,,0.00,,2013-07-24 14:12:00,
2013-07-24 10:22:00,63.0,52.0,29.95,NE,49,5.0,10.0,67,0.00,,,0.00,,2013-07-24 14:22:00,
2013-07-24 10:32:00,64.0,53.0,29.96,NE,53,2.0,9.0,67,0.00,,,0.00,,2013-07-24 14:32:00,
2013-07-24 10:43:00,65.0,53.0,29.96,ENE,78,4.0,8.0,65,0.00,,,0.00,,2013-07-24 14:43:00,
2013-07-24 10:55:00,65.0,53.0,29.96,ENE,78,4.0,8.0,65,0.00,,,0.00,,2013-07-24 14:55:00,
2013-07-24 11:02:00,66.0,54.0,29.96,ENE,72,2.0,9.0,65,0.00,,,0.00,,2013-07-24 15:02:00,
2013-07-24 11:22:00,66.0,53.0,29.96,ESE,121,4.0,8.0,63,0.00,,,0.00,,2013-07-24 15:22:00,
2013-07-24 11:33:00,67.0,54.0,29.96,NNE,17,3.0,8.0,63,0.00,,,0.00,,2013-07-24 15:33:00,
2013-07-24 11:43:00,68.0,54.0,29.96,East,98,1.0,7.0,62,0.00,,,0.00,,2013-07-24 15:43:00,
2013-07-24 11:52:00,68.0,54.0,29.96,East,98,1.0,7.0,62,0.00,,,0.00,,2013-07-24 15:52:00,
2013-07-24 12:02:00,68.0,54.0,29.97,ENE,70,1.0,5.0,61,0.00,,,0.00,,2013-07-24 16:02:00,
2013-07-24 12:12:00,69.0,55.0,29.97,East,80,2.0,8.0,60,0.00,,,0.00,,2013-07-24 16:12:00,
2013-07-24 12:22:00,69.0,55.0,29.97,East,80,2.0,8.0,60,0.00,,,0.00,,2013-07-24 16:22:00,
2013-07-24 12:33:00,69.0,54.0,29.97,West,281,1.0,5.0,59,0.00,,,0.00,,2013-07-24 16:33:00,
2013-07-24 12:43:00,70.0,54.0,29.98,East,81,1.0,7.0,57,0.00,,,0.00,,2013-07-24 16:43:00,
2013-07-24 12:53:00,70.0,54.0,29.98,East,81,1.0,7.0,57,0.00,,,0.00,,2013-07-24 16:53:00,
2013-07-24 13:02:00,69.0,55.0,29.98,West,265,1.0,6.0,60,0.00,,,0.00,,2013-07-24 17:02:00,
2013-07-24 13:12:00,70.0,54.0,29.98,ENE,60,1.0,9.0,56,0.00,,,0.00,,2013-07-24 17:12:00,
2013-07-24 13:22:00,70.0,54.0,29.98,ENE,60,1.0,9.0,56,0.00,,,0.00,,2013-07-24 17:22:00,
2013-07-24 13:33:00,70.0,54.0,29.97,NNW,340,1.0,4.0,56,0.00,,,0.00,,2013-07-24 17:33:00,
2013-07-24 13:53:00,71.0,53.0,29.97,ENE,71,2.0,9.0,53,0.00,,,0.00,,2013-07-24 17:53:00,
2013-07-24 14:02:00,71.0,54.0,29.97,ENE,65,3.0,9.0,54,0.00,,,0.00,,2013-07-24 18:02:00,
2013-07-24 14:12:00,72.0,54.0,29.96,NNW,346,1.0,7.0,54,0.00,,,0.00,,2013-07-24 18:12:00,
2013-07-24 14:22:00,72.0,54.0,29.96,NNW,346,1.0,7.0,54,0.00,,,0.00,,2013-07-24 18:22:00,
2013-07-24 14:33:00,72.0,54.0,29.96,ENE,69,1.0,4.0,54,0.00,,,0.00,,2013-07-24 18:33:00,
2013-07-24 14:43:00,73.0,54.0,29.96,ESE,115,1.0,10.0,52,0.00,,,0.00,,2013-07-24 18:43:00,
2013-07-24 14:52:00,73.0,54.0,29.96,ESE,115,1.0,10.0,52,0.00,,,0.00,,2013-07-24 18:52:00,
2013-07-24 15:02:00,73.0,54.0,29.96,ESE,114,3.0,11.0,51,0.00,,,0.00,,2013-07-24 19:02:00,
2013-07-24 15:12:00,73.0,54.0,29.96,ESE,114,3.0,11.0,51,0.00,,,0.00,,2013-07-24 19:12:00,
2013-07-24 15:22:00,73.0,53.0,29.96,NE,41,2.0,13.0,50,0.00,,,0.00,,2013-07-24 19:22:00,
2013-07-24 15:43:00,75.0,55.0,29.96,East,86,2.0,7.0,49,0.00,,,0.00,,2013-07-24 19:43:00,
2013-07-24 15:53:00,75.0,55.0,29.96,East,86,2.0,7.0,49,0.00,,,0.00,,2013-07-24 19:53:00,
2013-07-24 16:02:00,74.0,54.0,29.96,ENE,63,2.0,5.0,50,0.00,,,0.00,,2013-07-24 20:02:00,
2013-07-24 16:13:00,74.0,54.0,29.96,ENE,73,2.0,8.0,49,0.00,,,0.00,,2013-07-24 20:13:00,
2013-07-24 16:23:00,74.0,54.0,29.96,ENE,73,2.0,8.0,49,0.00,,,0.00,,2013-07-24 20:23:00,
2013-07-24 16:32:00,74.0,54.0,29.96,NE,49,3.0,10.0,49,0.00,,,0.00,,2013-07-24 20:32:00,
2013-07-24 16:43:00,74.0,54.0,29.96,NE,49,3.0,10.0,49,0.00,,,0.00,,2013-07-24 20:43:00,
2013-07-24 16:53:00,74.0,54.0,29.96,ENE,74,2.0,8.0,49,0.00,,,0.00,,2013-07-24 20:53:00,
2013-07-24 17:22:00,74.0,53.0,29.96,ESE,111,1.0,7.0,48,0.00,,,0.00,,2013-07-24 21:22:00,
2013-07-24 17:32:00,74.0,53.0,29.96,ESE,111,1.0,7.0,48,0.00,,,0.00,,2013-07-24 21:32:00,
2013-07-24 17:44:00,75.0,54.0,29.95,ENE,65,0.0,4.0,48,0.00,,,0.00,,2013-07-24 21:44:00,
2013-07-24 17:53:00,74.0,54.0,29.96,ENE,71,0.0,5.0,50,0.00,,,0.00,,2013-07-24 21:53:00,
2013-07-24 18:02:00,74.0,54.0,29.96,ENE,71,0.0,5.0,50,0.00,,,0.00,,2013-07-24 22:02:00,
2013-07-24 18:12:00,73.0,53.0,29.95,NE,55,2.0,9.0,50,0.00,,,0.00,,2013-07-24 22:12:00,
2013-07-24 18:22:00,73.0,54.0,29.95,NNE,13,1.0,5.0,52,0.00,,,0.00,,2013-07-24 22:22:00,
2013-07-24 18:32:00,73.0,54.0,29.95,NNE,13,1.0,5.0,52,0.00,,,0.00,,2013-07-24 22:32:00,
2013-07-24 18:43:00,73.0,54.0,29.95,East,99,1.0,8.0,51,0.00,,,0.00,,2013-07-24 22:43:00,
2013-07-24 18:53:00,72.0,54.0,29.95,NE,42,2.0,7.0,53,0.00,,,0.00,,2013-07-24 22:53:00,
2013-07-24 19:02:00,72.0,54.0,29.95,NE,42,2.0,7.0,53,0.00,,,0.00,,2013-07-24 23:02:00,
2013-07-24 19:12:00,72.0,53.0,29.95,ENE,61,0.0,4.0,52,0.00,,,0.00,,2013-07-24 23:12:00,
2013-07-24 19:22:00,72.0,54.0,29.96,ENE,63,2.0,6.0,53,0.00,,,0.00,,2013-07-24 23:22:00,
2013-07-24 19:32:00,72.0,55.0,29.96,SE,126,0.0,3.0,55,0.00,,,0.00,,2013-07-24 23:32:00,
2013-07-24 19:43:00,72.0,55.0,29.96,SE,126,0.0,3.0,55,0.00,,,0.00,,2013-07-24 23:43:00,
2013-07-24 19:52:00,72.0,54.0,29.96,East,82,0.0,4.0,53,0.00,,,0.00,,2013-07-24 23:52:00,
2013-07-24 20:02:00,72.0,54.0,29.96,East,82,0.0,4.0,53,0.00,,,0.00,,2013-07-25 00:02:00,
2013-07-24 20:22:00,71.0,55.0,29.96,SSE,159,1.0,4.0,57,0.00,,,0.00,,2013-07-25 00:22:00,
2013-07-24 20:33:00,70.0,55.0,29.97,NE,48,0.0,2.0,58,0.00,,,0.00,,2013-07-25 00:33:00,
2013-07-24 20:43:00,70.0,55.0,29.97,NE,48,0.0,2.0,58,0.00,,,0.00,,2013-07-25 00:43:00,
2013-07-24 20:53:00,70.0,55.0,29.97,NE,48,0.0,2.0,58,0.00,,,0.00,,2013-07-25 00:53:00,
2013-07-24 21:02:00,70.0,56.0,29.97,SE,127,0.0,3.0,62,0.00,,,0.00,,2013-07-25 01:02:00,
2013-07-24 21:12:00,70.0,56.0,29.97,SE,127,0.0,3.0,62,0.00,,,0.00,,2013-07-25 01:12:00,
2013-07-24 21:22:00,69.0,56.0,29.98,ESE,117,0.0,2.0,64,0.00,,,0.00,,2013-07-25 01:22:00,
2013-07-24 21:32:00,69.0,56.0,29.98,ESE,117,0.0,2.0,64,0.00,,,0.00,,2013-07-25 01:32:00,
2013-07-24 21:43:00,68.0,55.0,29.98,East,99,0.0,2.0,64,0.00,,,0.00,,2013-07-25 01:43:00,
2013-07-24 21:53:00,68.0,55.0,29.98,East,99,0.0,2.0,64,0.00,,,0.00,,2013-07-25 01:53:00,
2013-07-24 22:12:00,67.0,56.0,29.98,East,99,0.0,0.0,69,0.00,,,0.00,,2013-07-25 02:12:00,
2013-07-24 22:33:00,66.0,57.0,29.98,East,84,0.0,1.0,72,0.00,,,0.00,,2013-07-25 02:33:00,
2013-07-24 22:43:00,66.0,56.0,29.98,East,84,0.0,2.0,71,0.00,,,0.00,,2013-07-25 02:43:00,
2013-07-24 23:02:00,65.0,55.0,29.98,East,84,0.0,2.0,71,0.00,,,0.00,,2013-07-25 03:02:00,
2013-07-24 23:16:00,65.0,56.0,29.98,East,87,0.0,2.0,72,0.00,,,0.00,,2013-07-25 03:16:00,
2013-07-24 23:44:00,64.0,56.0,29.99,ESE,108,0.0,1.0,74,0.00,,,0.00,,2013-07-25 03:44:00,
2013-07-24 23:52:00,63.0,55.0,30.00,ESE,108,0.0,1.0,75,0.00,,,0.00,,2013-07-25 03:52:00,